Regional Weather Roundup
Issued by NWS Cleveland, OH

Home | Current Version | Previous Version | Graphics & Text | Print | Product List | Glossary On
Versions: 1 2 3 4 5 6 7 8 9 10 11 12 13 14 15 16 17 18 19 20 21 22 23 24 25 26 27 28 29 30 31 32 33 34 35 36 37 38 39 40 41 42 43 44 45 46 47 48 49 50
000
ASUS41 KCLE 181102
RWRCLE
OHIO REGIONAL WEATHER ROUNDUP
NATIONAL WEATHER SERVICE CLEVELAND, OH
700 AM EDT SAT APR 18 2015

NOTE: "FAIR" INDICATES FEW OR NO CLOUDS BELOW 12,000 FEET WITH NO
SIGNIFICANT WEATHER AND/OR OBSTRUCTIONS TO VISIBILITY.

OHZ001>008-015>018-024>027-034-035-043-044-181200-
   NORTHWEST OHIO

CITY           SKY/WX    TMP DP  RH WIND       PRES   REMARKS
DEFIANCE       MOCLDY    50  45  83 CALM      30.04S
FINDLAY        PTCLDY    54  41  61 CALM      30.04R
TOLEDO EXPRESS MOCLDY    50  44  80 CALM      30.03S
TOLEDO EXEC    PTCLDY    50  41  71 CALM      30.04S
LIMA           CLEAR     54  41  61 SW3       30.04S
$$

OHZ009>014-019>023-028>033-038-089-181200-
   NORTHEAST OHIO

CITY           SKY/WX    TMP DP  RH WIND       PRES   REMARKS
CLE-HOPKINS    CLEAR     52  43  71 SW5       30.06R
CLE-LAKEFRONT  CLEAR     56  45  66 S5        30.02S
CUY CO. ARPT   MOCLDY    57  46  67 SW12      30.04
LORAIN-ELYRIA  CLEAR     47  42  83 SW5       30.04S
ASHTABULA      PTCLDY    48  45  89 S5        30.04R
AKRON-CANTON   PTCLDY    51  44  77 SW5       30.06R
WOOSTER        CLEAR     45  42  89 CALM      30.06R FOG
MANSFIELD      CLEAR     53  41  63 SW5       30.05S
YOUNGSTOWN     PTCLDY    51  45  79 S5        30.05R
$$

OHZ042-051>053-060>062-070>072-077>081-181200-
  SOUTHWEST OHIO

CITY           SKY/WX    TMP DP  RH WIND       PRES   REMARKS
CINC-COVINGTON PTCLDY    51  43  74 CALM      30.04S
CINC-LUNKEN    CLEAR     47  47 100 CALM      30.05F
HAMILTON       CLEAR     47  45  93 CALM      30.06R
DAYTON         PTCLDY    52  45  77 NE3       30.06S
WRIGHT-PAT AFB CLEAR     45  44  95 CALM      30.05S
DAYTON GENERAL CLEAR     48  43  82 CALM      30.05R
WILMINGTON     CLEAR     48  41  76 NE3       30.05R
$$

OHZ036-037-039>041-045>050-054>059-063>069-073>076-082>088-181200-
  CENTRAL AND SOUTHEAST OHIO

CITY           SKY/WX    TMP DP  RH WIND       PRES   REMARKS
COLUMBUS       PTCLDY    47  43  86 CALM      30.05R
OSU AIRPORT    CLEAR     49  43  80 CALM      30.06R
BOLTON FIELD   NOT AVBL
RICKENBACK AFB NOT AVBL
NEWARK         CLEAR     43  41  93 CALM      30.06R FOG
MARION         CLEAR     47  42  83 S3        30.06R
LANCASTER      CLEAR     45  42  89 CALM      30.07R
ZANESVILLE     CLEAR     43  41  93 CALM      30.06S FOG
NEW PHILLY     CLEAR     44  41  89 E3        30.07R FOG
$$



USA.gov is the U.S. government's official web portal to all federal, state and local government web resources and services.